Location: *
(46.0770°N, 1.6444°E)
Time: 13:58:59
(UTC+00:00)

SL-8 R/B - Visible Passes

Search period start: 13 December 2019 00:00
Search period end: 23 December 2019 00:00
Orbit: 656 x 667 km, 48.4° (Epoch: 12 December)

Date Brightness Start Highest point End Pass type
(mag) Time Alt. Az. Time Alt. Az. Time Alt. Az.
17 Dec 7.0 06:17:27 10° SSE 06:19:03 12° SE 06:20:40 10° ESE visible
18 Dec 6.2 06:45:32 10° SSW 06:49:26 25° SE 06:53:21 10° E visible
19 Dec 6.7 05:36:23 10° SSE 05:38:21 12° SE 05:40:18 10° ESE visible
20 Dec 5.8 06:04:46 10° SSW 06:08:44 27° SE 06:12:45 10° E visible
21 Dec 6.5 04:55:24 10° SSE 04:57:39 13° SE 04:59:53 10° ESE visible
21 Dec 4.6 06:34:45 10° SW 06:39:22 51° SSE 06:44:01 10° ENE visible
22 Dec 5.5 05:24:01 10° SSW 05:28:04 28° SE 05:32:07 10° E visible
